Voltar ao catálogo

COSMOS 644

AtivoMilitarLEO
NORAD 7268·PAYLOAD·🇷🇺 Russia

Lançado Apr 23, 1974 de Plesetsk Cosmodrome

Loading…

Próximas Passagens (próximas 24 horas)

TLE

AtualizadoSource: Space-Track

Época: Sep 14, 2026, 10:35 UTC

1 07268U 74024D   26257.44111459 -.00000027  00000-0 -58703-4 0  9999
2 07268  74.0143 252.9883 0093927 152.7621 207.8409 12.63696198416962

Acompanhe COSMOS 644 em tempo real com AllMySat

Download on the App Store